GIA100 NTAA-PHNL

Flight info

Callsign GIA100
Flight time N/A
Altitude 36000
Route DCT TIAMA B595 KOA V20 HOKLA JULLE5
Aircraft B77W/H-SDE1E2E3FGHIJ2J3J4J5M1RWXY/LB1D1

Departure

Time N/A
Airport Fa'a'ā International Airport (NTAA)

Arrival

Time 2026-05-01 13:07
Airport Daniel K. Inouye International Airport (PHNL)
Time Latitude Longitude Altitude Speed Heading
2026-05-01 12:53 20.89956 -157.51395 10810 ft 366 kts 317°
2026-05-01 12:53 20.91754 -157.53256 10665 ft 352 kts 317°
2026-05-01 12:54 20.93457 -157.55022 10568 ft 338 kts 318°
2026-05-01 12:54 20.96241 -157.58838 10285 ft 317 kts 296°
2026-05-01 12:54 20.97040 -157.61012 10162 ft 307 kts 292°
2026-05-01 12:55 20.98408 -157.65212 9709 ft 296 kts 290°
2026-05-01 12:55 20.99080 -157.67316 9297 ft 297 kts 291°
2026-05-01 12:55 20.99745 -157.69403 8917 ft 297 kts 290°
2026-05-01 12:56 21.00413 -157.71500 8550 ft 297 kts 291°
2026-05-01 12:56 21.01082 -157.73599 8187 ft 297 kts 291°
2026-05-01 12:56 21.01750 -157.75699 7825 ft 297 kts 291°
2026-05-01 12:56 21.02415 -157.77788 7466 ft 297 kts 291°
2026-05-01 12:57 21.03077 -157.79872 7113 ft 296 kts 291°
2026-05-01 12:57 21.04404 -157.84045 6413 ft 296 kts 290°
2026-05-01 12:57 21.05070 -157.86144 6002 ft 295 kts 291°
2026-05-01 12:58 21.05721 -157.88197 5719 ft 292 kts 291°
2026-05-01 12:58 21.06380 -157.90273 5359 ft 293 kts 291°
2026-05-01 12:58 21.07035 -157.92337 5004 ft 294 kts 291°
2026-05-01 12:59 21.09036 -157.95932 4314 ft 273 kts 313°
2026-05-01 12:59 21.10215 -157.97504 4025 ft 263 kts 313°
2026-05-01 12:59 21.12411 -158.00427 3429 ft 237 kts 314°
2026-05-01 13:00 21.14469 -158.02930 2989 ft 203 kts 328°
2026-05-01 13:00 21.15530 -158.03810 2983 ft 187 kts 330°
2026-05-01 13:01 21.17550 -158.05432 2792 ft 176 kts 331°
2026-05-01 13:01 21.18542 -158.06163 2645 ft 170 kts 342°
2026-05-01 13:01 21.20810 -158.06488 2347 ft 157 kts 20°
2026-05-01 13:02 21.21803 -158.06082 2209 ft 148 kts 36°
2026-05-01 13:07 21.32993 -157.90732 36 ft 13 kts 349°
2026-05-01 13:07 21.33036 -157.90810 38 ft 0 kts 269°
2026-05-01 13:07 21.33034 -157.90845 38 ft 15 kts 260°
2026-05-01 13:08 21.32990 -157.90944 40 ft 14 kts 253°
2026-05-01 13:08 21.33008 -157.91023 42 ft 9 kts 276°
2026-05-01 13:08 21.32980 -157.91084 41 ft 9 kts 234°
2026-05-01 13:08 21.32938 -157.91147 41 ft 10 kts 234°
2026-05-01 13:09 21.32925 -157.91206 42 ft 7 kts 303°
2026-05-01 13:09 21.32929 -157.91209 42 ft 1 kts 324°
2026-05-01 13:09 21.32954 -157.91223 42 ft 5 kts 328°
2026-05-01 13:09 21.32970 -157.91235 42 ft 1 kts 324°
2026-05-01 13:10 21.32974 -157.91238 42 ft 0 kts 324°